{"data":{"norad_id":63691,"epoch":"2026-09-21T21:58:04.642464Z","epoch_age_seconds":85480,"freshness":"FRESH","line1":"1 63691U 25086E   26264.91533151 -.00000059  00000+0 -17153-3 0  9999","line2":"2 63691  86.5023 280.7202 0001835  77.0376 283.0963 13.24412116 67660","mean_motion":13.24412116,"eccentricity":0.0001835,"inclination_deg":86.5023,"raan_deg":280.7202,"arg_perigee_deg":77.0376,"mean_anomaly_deg":283.0963,"bstar":-0.00017153,"rev_number":6766,"period_min":108.72748615054,"perigee_km":1166.52944773,"apogee_km":1169.2988485014,"semimajor_km":7546.0511481157,"source":"CELESTRAK","updated_at":"2026-09-22T09:00:29.282547Z"}}